Flag for U.S.A. Weather past 2 weeks in Kodiak, Alaska, U.S.A.

Now
45 °F

Passing clouds.


Feels Like: 41 °F
Forecast: 44 / 48 °F
Wind: 7 mph from Southeast

Location: Kodiak Weather Reporting Station

Current Time: May 23, 2015 at 6:19:18 AM

Latest Report: May 23, 2015 at 5:53 AM


Visibility: 10 mi

Pressure: 30.01 "Hg

Humidity: 86%

Dew point: 41 °F

Location of KodiakLocation

Historic Weather in Kodiak — Graph

°F

Kodiak temperature yesterday

Maximum temperature yesterday: 49 °F (at 3:53 PM)
Minimum temperature yesterday: 45 °F (at 5:53 AM)
Average temperature yesterday: 47 °F

Past Weeks' High & Low Weather Summary

 TemperatureHumidityPressure
High58 °F (May 12, 2:53 PM)100% (May 14, 4:53 AM)30.20 "Hg (May 14, 4:53 AM)
Low39 °F (May 8, 6:53 AM)44% (May 12, 2:53 PM)29.49 "Hg (May 8, 8:53 AM)
Average46 °F88%29.96 "Hg
* Reported May 8 4:53 AM — May 23 4:53 AM, Kodiak, Weather by CustomWeather, © 2015

Note: Actual official high and low records may vary slightly from our data, if they occured in-between our weather recording intervals... More about our weather records

Advertising

Kodiak weather history for previous 24 hours

 ConditionsComfort  
Time TempWeatherWind HumidityBarometerVisibility
4:53 AM
Sat, May 23
45 °FPassing clouds.No wind90%30.02 "Hg10 mi
3:53 AM46 °FPassing clouds.7 mph86%30.01 "Hg10 mi
2:53 AM47 °FOvercast.13 mph86%30.01 "Hg10 mi
1:53 AM47 °FMostly cloudy.7 mph93%30.02 "Hg10 mi
12:53 AM48 °FOvercast.14 mph93%30.01 "Hg9 mi
11:53 PM
Fri, May 22
47 °FLight rain. Overcast.10 mph97%30.01 "Hg9 mi
10:53 PM47 °FLight rain. Mostly cloudy.14 mph97%30.02 "Hg7 mi
9:53 PM47 °FLight rain. Fog.16 mph97%30.02 "Hg3 mi
8:53 PM46 °FLight rain. Fog.12 mph100%30.03 "Hg3 mi
8:04 PM47 °FLight rain. Fog.12 mph97%30.05 "Hg2 mi
6:53 PM47 °FLight rain. Fog.15 mph97%30.06 "Hg6 mi
5:53 PM48 °FLight rain. Mostly cloudy.14 mph96%30.08 "Hg10 mi
4:53 PM48 °FFog.16 mph96%30.09 "Hg3 mi
3:53 PM49 °FMore clouds than sun.15 mph93%30.11 "Hg10 mi
2:53 PM48 °FFog.13 mph96%30.12 "Hg6 mi
1:53 PM48 °FFog.13 mph96%30.14 "Hg6 mi
12:53 PM48 °FFog.14 mph96%30.14 "Hg1 mi
11:53 AM48 °FMore clouds than sun.12 mph96%30.15 "Hg7 mi
11:03 AM47 °FFog.9 mph100%30.16 "Hg1 mi
10:53 AM47 °FFog.8 mph97%30.16 "Hg1 mi
9:53 AM46 °FFog.7 mph96%30.16 "Hg4 mi
8:53 AM46 °FPartly sunny.6 mph96%30.17 "Hg10 mi
7:53 AM46 °FPartly sunny.9 mph93%30.17 "Hg10 mi
6:53 AM46 °FPartly sunny.5 mph93%30.17 "Hg10 mi
Weather by CustomWeather, © 2015

See weather overviewHow to use our weather pages